owner,sensor,date,latitude,longitude,vertical_datum,direction_of_sea_water_velocity,sea_water_speed,upward_sea_water_velocity,qcFlag 
TABS,ioos:station:wmo:42043:1,2009-07-01T00:00:00Z,28.9818,-94.9186,2.0,83.45761434,43.18120424,-99999.0,'11111222,11111222,99999999' 
TABS,ioos:station:wmo:42043:1,2009-07-01T00:30:00Z,28.9818,-94.9186,2.0,84.27832984,41.12488784,-99999.0,'11111222,11111222,99999999' 
TABS,ioos:station:wmo:42043:1,2009-07-01T01:00:00Z,28.9818,-94.9186,2.0,83.17210681,38.2714319,-99999.0,'11111222,11111222,99999999' 
TABS,ioos:station:wmo:42043:1,2009-07-01T01:30:00Z,28.9818,-94.9186,2.0,81.16173238,39.24600999,-99999.0,'11111222,11111222,99999999' 
TABS,ioos:station:wmo:42043:1,2009-07-01T02:00:00Z,28.9818,-94.9186,2.0,81.74717804,41.59070209,-99999.0,'11111222,11111222,99999999' 
TABS,ioos:station:wmo:42043:1,2009-07-01T02:30:00Z,28.9818,-94.9186,2.0,78.20242326,39.86204837,-99999.0,'11111222,11111222,99999999' 
TABS,ioos:station:wmo:42043:1,2009-07-01T03:00:00Z,28.9818,-94.9186,2.0,68.22008358,44.65787501,-99999.0,'11111222,11111222,99999999' 
TABS,ioos:station:wmo:42043:1,2009-07-01T03:30:00Z,28.9818,-94.9186,2.0,67.2559931,44.35933498,-99999.0,'11111222,11111222,99999999' 
TABS,ioos:station:wmo:42043:1,2009-07-01T04:00:00Z,28.9818,-94.9186,2.0,65.35622145,41.75297115,-99999.0,'11111222,11111222,99999999' 
TABS,ioos:station:wmo:42043:1,2009-07-01T04:30:00Z,28.9818,-94.9186,2.0,65.65184517,36.64975034,-99999.0,'11111222,11111222,99999999' 
TABS,ioos:station:wmo:42043:1,2009-07-01T05:00:00Z,28.9818,-94.9186,2.0,55.76185449,34.49838402,-99999.0,'11111222,11111222,99999999' 
TABS,ioos:station:wmo:42043:1,2009-07-01T05:30:00Z,28.9818,-94.9186,2.0,54.96269486,36.21251993,-99999.0,'11111222,11111222,99999999' 
TABS,ioos:station:wmo:42043:1,2009-07-01T06:00:00Z,28.9818,-94.9186,2.0,53.35391532,32.268246,-99999.0,'11111222,11111222,99999999' 
TABS,ioos:station:wmo:42043:1,2009-07-01T06:30:00Z,28.9818,-94.9186,2.0,59.11417697,29.02616234,-99999.0,'11111222,11111222,99999999' 
TABS,ioos:station:wmo:42043:1,2009-07-01T07:00:00Z,28.9818,-94.9186,2.0,61.75581498,31.59131843,-99999.0,'11111222,11111222,99999999' 
TABS,ioos:station:wmo:42043:1,2009-07-01T07:30:00Z,28.9818,-94.9186,2.0,62.50877521,30.15508083,-99999.0,'11111222,11111222,99999999' 
TABS,ioos:station:wmo:42043:1,2009-07-01T08:00:00Z,28.9818,-94.9186,2.0,66.898497,29.46257966,-99999.0,'11111222,11111222,99999999' 
TABS,ioos:station:wmo:42043:1,2009-07-01T08:30:00Z,28.9818,-94.9186,2.0,59.11036513,21.23154257,-99999.0,'11111222,11111222,99999999' 
TABS,ioos:station:wmo:42043:1,2009-07-01T09:00:00Z,28.9818,-94.9186,2.0,67.67242458,18.3994701,-99999.0,'11111222,11111222,99999999' 
TABS,ioos:station:wmo:42043:1,2009-07-01T09:30:00Z,28.9818,-94.9186,2.0,72.99610347,20.89336019,-99999.0,'11111222,11111222,99999999' 
TABS,ioos:station:wmo:42043:1,2009-07-01T10:00:00Z,28.9818,-94.9186,2.0,75.59634013,20.4219196,-99999.0,'11111222,11111222,99999999' 
TABS,ioos:station:wmo:42043:1,2009-07-01T10:30:00Z,28.9818,-94.9186,2.0,73.20272431,19.58566057,-99999.0,'11111222,11111222,99999999' 
TABS,ioos:station:wmo:42043:1,2009-07-01T11:00:00Z,28.9818,-94.9186,2.0,80.1425638,17.64043083,-99999.0,'11111222,11111222,99999999' 
TABS,ioos:station:wmo:42043:1,2009-07-01T11:30:00Z,28.9818,-94.9186,2.0,85.38781835,17.90798984,-99999.0,'11111222,11111222,99999999' 
TABS,ioos:station:wmo:42043:1,2009-07-01T12:00:00Z,28.9818,-94.9186,2.0,72.35658845,14.87993616,-99999.0,'11111222,11111222,99999999' 
TABS,ioos:station:wmo:42043:1,2009-07-01T12:30:00Z,28.9818,-94.9186,2.0,57.91740256,14.93008372,-99999.0,'11111222,11111222,99999999' 
TABS,ioos:station:wmo:42043:1,2009-07-01T13:00:00Z,28.9818,-94.9186,2.0,59.19141432,18.37271074,-99999.0,'11111222,11111222,99999999' 
TABS,ioos:station:wmo:42043:1,2009-07-01T13:30:00Z,28.9818,-94.9186,2.0,57.90515112,17.63520626,-99999.0,'11111222,11111222,99999999' 
TABS,ioos:station:wmo:42043:1,2009-07-01T14:00:00Z,28.9818,-94.9186,2.0,69.60628238,18.59557205,-99999.0,'11111222,11111222,99999999' 
TABS,ioos:station:wmo:42043:1,2009-07-01T14:30:00Z,28.9818,-94.9186,2.0,65.78462798,19.08970927,-99999.0,'11111222,11111222,99999999' 
TABS,ioos:station:wmo:42043:1,2009-07-01T15:00:00Z,28.9818,-94.9186,2.0,71.48259521,17.56963289,-99999.0,'11111222,11111222,99999999' 
TABS,ioos:station:wmo:42043:1,2009-07-01T15:30:00Z,28.9818,-94.9186,2.0,72.67356132,27.29872708,-99999.0,'11111222,11111222,99999999' 
TABS,ioos:station:wmo:42043:1,2009-07-01T16:00:00Z,28.9818,-94.9186,2.0,85.22548166,34.96131719,-99999.0,'11111222,11111222,99999999' 
TABS,ioos:station:wmo:42043:1,2009-07-01T16:30:00Z,28.9818,-94.9186,2.0,89.66881499,31.14052023,-99999.0,'11111222,11111222,99999999' 
TABS,ioos:station:wmo:42043:1,2009-07-01T17:00:00Z,28.9818,-94.9186,2.0,89.32483004,29.70206222,-99999.0,'11111222,11111222,99999999' 
TABS,ioos:station:wmo:42043:1,2009-07-01T17:30:00Z,28.9818,-94.9186,2.0,94.5400557,27.66681225,-99999.0,'11111222,11111222,99999999' 
TABS,ioos:station:wmo:42043:1,2009-07-01T18:00:00Z,28.9818,-94.9186,2.0,97.8108001,24.87074587,-99999.0,'11111222,11111222,99999999' 
TABS,ioos:station:wmo:42043:1,2009-07-01T18:30:00Z,28.9818,-94.9186,2.0,108.8454636,20.74191168,-99999.0,'11111222,11111222,99999999' 
TABS,ioos:station:wmo:42043:1,2009-07-01T19:00:00Z,28.9818,-94.9186,2.0,97.8979716,22.34192919,-99999.0,'11111222,11111222,99999999' 
TABS,ioos:station:wmo:42043:1,2009-07-01T19:30:00Z,28.9818,-94.9186,2.0,94.91683287,22.05114509,-99999.0,'11111222,11111222,99999999' 
TABS,ioos:station:wmo:42043:1,2009-07-01T20:00:00Z,28.9818,-94.9186,2.0,102.8236729,19.5988418,-99999.0,'11111222,11111222,99999999' 
TABS,ioos:station:wmo:42043:1,2009-07-01T20:30:00Z,28.9818,-94.9186,2.0,106.0735366,17.80609446,-99999.0,'11111222,11111222,99999999' 
TABS,ioos:station:wmo:42043:1,2009-07-01T21:00:00Z,28.9818,-94.9186,2.0,111.6614313,11.40544168,-99999.0,'11111222,11111222,99999999' 
TABS,ioos:station:wmo:42043:1,2009-07-01T21:30:00Z,28.9818,-94.9186,2.0,104.9981536,12.71308381,-99999.0,'11111222,11111222,99999999' 
TABS,ioos:station:wmo:42043:1,2009-07-01T22:00:00Z,28.9818,-94.9186,2.0,99.19878714,12.51089525,-99999.0,'11111222,11111222,99999999' 
TABS,ioos:station:wmo:42043:1,2009-07-01T22:30:00Z,28.9818,-94.9186,2.0,98.54057609,14.40979181,-99999.0,'11111222,11111222,99999999' 
TABS,ioos:station:wmo:42043:1,2009-07-02T00:00:00Z,28.9818,-94.9186,2.0,91.65739767,25.93084842,-99999.0,'11111222,11111222,99999999' 
TABS,ioos:station:wmo:42043:1,2009-07-02T00:30:00Z,28.9818,-94.9186,2.0,91.41134632,27.60837554,-99999.0,'11111222,11111222,99999999' 
TABS,ioos:station:wmo:42043:1,2009-07-02T01:00:00Z,28.9818,-94.9186,2.0,88.63340231,30.60870628,-99999.0,'11111222,11111222,99999999' 
TABS,ioos:station:wmo:42043:1,2009-07-02T01:30:00Z,28.9818,-94.9186,2.0,84.40249139,30.75665944,-99999.0,'11111222,11111222,99999999' 
TABS,ioos:station:wmo:42043:1,2009-07-02T02:00:00Z,28.9818,-94.9186,2.0,80.70528416,35.97229628,-99999.0,'11111222,11111222,99999999' 
TABS,ioos:station:wmo:42043:1,2009-07-02T02:30:00Z,28.9818,-94.9186,2.0,77.0099035,38.25909565,-99999.0,'11111222,11111222,99999999' 
TABS,ioos:station:wmo:42043:1,2009-07-02T03:00:00Z,28.9818,-94.9186,2.0,79.05643357,34.66031304,-99999.0,'11111222,11111222,99999999' 
TABS,ioos:station:wmo:42043:1,2009-07-02T03:30:00Z,28.9818,-94.9186,2.0,77.97294973,31.3378908,-99999.0,'11111222,11111222,99999999' 
TABS,ioos:station:wmo:42043:1,2009-07-02T04:00:00Z,28.9818,-94.9186,2.0,77.14227641,36.08480705,-99999.0,'11111222,11111222,99999999' 
TABS,ioos:station:wmo:42043:1,2009-07-02T04:30:00Z,28.9818,-94.9186,2.0,75.74976245,37.00876923,-99999.0,'11111222,11111222,99999999' 
TABS,ioos:station:wmo:42043:1,2009-07-02T05:00:00Z,28.9818,-94.9186,2.0,69.92572623,37.02961653,-99999.0,'11111222,11111222,99999999' 
TABS,ioos:station:wmo:42043:1,2009-07-02T05:30:00Z,28.9818,-94.9186,2.0,76.74794084,28.35507009,-99999.0,'11111222,11111222,99999999' 
TABS,ioos:station:wmo:42043:1,2009-07-02T06:00:00Z,28.9818,-94.9186,2.0,70.175691,39.77733651,-99999.0,'11111222,11111222,99999999' 
TABS,ioos:station:wmo:42043:1,2009-07-02T06:30:00Z,28.9818,-94.9186,2.0,71.50997584,39.44626979,-99999.0,'11111222,11111222,99999999' 
TABS,ioos:station:wmo:42043:1,2009-07-02T07:00:00Z,28.9818,-94.9186,2.0,71.74473431,37.31822209,-99999.0,'11111222,11111222,99999999' 
TABS,ioos:station:wmo:42043:1,2009-07-02T07:30:00Z,28.9818,-94.9186,2.0,71.57471895,37.65007835,-99999.0,'11111222,11111222,99999999' 
TABS,ioos:station:wmo:42043:1,2009-07-02T08:00:00Z,28.9818,-94.9186,2.0,76.82747738,36.68525589,-99999.0,'11111222,11111222,99999999' 
TABS,ioos:station:wmo:42043:1,2009-07-02T08:30:00Z,28.9818,-94.9186,2.0,81.39215776,30.86769833,-99999.0,'11111222,11111222,99999999' 
TABS,ioos:station:wmo:42043:1,2009-07-02T09:00:00Z,28.9818,-94.9186,2.0,87.25307307,27.75188822,-99999.0,'11111222,11111222,99999999' 
TABS,ioos:station:wmo:42043:1,2009-07-02T09:30:00Z,28.9818,-94.9186,2.0,88.1940645,30.14497305,-99999.0,'11111222,11111222,99999999' 
TABS,ioos:station:wmo:42043:1,2009-07-02T10:00:00Z,28.9818,-94.9186,2.0,87.23813012,29.88471348,-99999.0,'11111222,11111222,99999999' 
TABS,ioos:station:wmo:42043:1,2009-07-02T10:30:00Z,28.9818,-94.9186,2.0,82.93469658,16.66655633,-99999.0,'11111222,11111222,99999999' 
TABS,ioos:station:wmo:42043:1,2009-07-02T11:00:00Z,28.9818,-94.9186,2.0,95.69751847,26.18937953,-99999.0,'11111222,11111222,99999999' 
TABS,ioos:station:wmo:42043:1,2009-07-02T11:30:00Z,28.9818,-94.9186,2.0,98.18669691,30.05629551,-99999.0,'11111222,11111222,99999999' 
TABS,ioos:station:wmo:42043:1,2009-07-02T12:00:00Z,28.9818,-94.9186,2.0,96.0465052,30.37900755,-99999.0,'11111222,11111222,99999999' 
TABS,ioos:station:wmo:42043:1,2009-07-02T12:30:00Z,28.9818,-94.9186,2.0,98.58791551,27.25559392,-99999.0,'11111222,11111222,99999999' 
TABS,ioos:station:wmo:42043:1,2009-07-02T13:00:00Z,28.9818,-94.9186,2.0,99.45061266,24.17815957,-99999.0,'11111222,11111222,99999999' 
TABS,ioos:station:wmo:42043:1,2009-07-02T13:30:00Z,28.9818,-94.9186,2.0,104.1884405,21.90832034,-99999.0,'11111222,11111222,99999999' 
TABS,ioos:station:wmo:42043:1,2009-07-02T14:00:00Z,28.9818,-94.9186,2.0,102.6067316,19.93050426,-99999.0,'11111222,11111222,99999999' 
TABS,ioos:station:wmo:42043:1,2009-07-02T14:30:00Z,28.9818,-94.9186,2.0,94.03985438,18.73655518,-99999.0,'11111222,11111222,99999999' 
TABS,ioos:station:wmo:42043:1,2009-07-02T15:00:00Z,28.9818,-94.9186,2.0,112.6035238,13.52923132,-99999.0,'11111222,11111222,99999999' 
TABS,ioos:station:wmo:42043:1,2009-07-02T15:30:00Z,28.9818,-94.9186,2.0,123.0960476,10.96978578,-99999.0,'11111222,11111222,99999999' 
TABS,ioos:station:wmo:42043:1,2009-07-02T16:00:00Z,28.9818,-94.9186,2.0,123.1227237,7.283570553,-99999.0,'11133222,11111222,99999999' 
TABS,ioos:station:wmo:42043:1,2009-07-02T16:30:00Z,28.9818,-94.9186,2.0,133.7833747,7.327277803,-99999.0,'11133222,11111222,99999999' 
TABS,ioos:station:wmo:42043:1,2009-07-02T17:00:00Z,28.9818,-94.9186,2.0,162.9943628,5.197239652,-99999.0,'11133222,11111222,99999999' 
TABS,ioos:station:wmo:42043:1,2009-07-02T17:30:00Z,28.9818,-94.9186,2.0,179.9997895,5.86,-99999.0,'11133222,11111222,99999999' 
TABS,ioos:station:wmo:42043:1,2009-07-02T18:00:00Z,28.9818,-94.9186,2.0,218.7780266,5.284931409,-99999.0,'11133222,11111222,99999999' 
TABS,ioos:station:wmo:42043:1,2009-07-02T18:30:00Z,28.9818,-94.9186,2.0,209.9416621,5.770129981,-99999.0,'11133222,11111222,99999999' 
TABS,ioos:station:wmo:42043:1,2009-07-02T19:00:00Z,28.9818,-94.9186,2.0,256.6871446,7.296053728,-99999.0,'11133222,11111222,99999999' 
TABS,ioos:station:wmo:42043:1,2009-07-02T19:30:00Z,28.9818,-94.9186,2.0,255.626834,8.25848049,-99999.0,'11133222,11111222,99999999' 
TABS,ioos:station:wmo:42043:1,2009-07-02T20:00:00Z,28.9818,-94.9186,2.0,252.8653917,6.686777998,-99999.0,'11133222,11111222,99999999' 
TABS,ioos:station:wmo:42043:1,2009-07-02T20:30:00Z,28.9818,-94.9186,2.0,265.8095812,10.94926482,-99999.0,'11111222,11111222,99999999' 
TABS,ioos:station:wmo:42043:1,2009-07-02T21:00:00Z,28.9818,-94.9186,2.0,271.4573371,8.652797236,-99999.0,'11133222,11111222,99999999' 
TABS,ioos:station:wmo:42043:1,2009-07-02T21:30:00Z,28.9818,-94.9186,2.0,294.9038909,14.96111293,-99999.0,'11111222,11111222,99999999' 
TABS,ioos:station:wmo:42043:1,2009-07-02T22:00:00Z,28.9818,-94.9186,2.0,288.9606765,11.72621849,-99999.0,'11111222,11111222,99999999' 
TABS,ioos:station:wmo:42043:1,2009-07-02T22:30:00Z,28.9818,-94.9186,2.0,300.2320992,15.03479298,-99999.0,'11111222,11111222,99999999' 
TABS,ioos:station:wmo:42043:1,2009-07-02T23:00:00Z,28.9818,-94.9186,2.0,322.6344715,19.64073573,-99999.0,'11111222,11111222,99999999' 
TABS,ioos:station:wmo:42043:1,2009-07-02T23:30:00Z,28.9818,-94.9186,2.0,330.6119424,25.51319855,-99999.0,'11111222,11111222,99999999' 
TABS,ioos:station:wmo:42043:1,2009-07-03T00:00:00Z,28.9818,-94.9186,2.0,334.014968,27.84494389,-99999.0,'11111222,11111222,99999999' 
TABS,ioos:station:wmo:42043:1,2009-07-03T00:30:00Z,28.9818,-94.9186,2.0,340.7921462,32.34039579,-99999.0,'11111222,11111222,99999999' 
TABS,ioos:station:wmo:42043:1,2009-07-03T01:00:00Z,28.9818,-94.9186,2.0,348.7546364,27.94656687,-99999.0,'11111222,11111222,99999999' 
TABS,ioos:station:wmo:42043:1,2009-07-03T01:30:00Z,28.9818,-94.9186,2.0,355.5535779,25.6672593,-99999.0,'11111222,11111222,99999999' 
TABS,ioos:station:wmo:42043:1,2009-07-03T02:00:00Z,28.9818,-94.9186,2.0,2.421276356,25.80303277,-99999.0,'11111222,11111222,99999999' 
TABS,ioos:station:wmo:42043:1,2009-07-03T02:30:00Z,28.9818,-94.9186,2.0,2.36772407,29.77541603,-99999.0,'11111222,11111222,99999999' 
TABS,ioos:station:wmo:42043:1,2009-07-03T03:00:00Z,28.9818,-94.9186,2.0,11.38879763,28.56238085,-99999.0,'11111222,11111222,99999999' 
TABS,ioos:station:wmo:42043:1,2009-07-03T03:30:00Z,28.9818,-94.9186,2.0,12.38140152,29.47552374,-99999.0,'11111222,11111222,99999999' 
TABS,ioos:station:wmo:42043:1,2009-07-03T04:00:00Z,28.9818,-94.9186,2.0,15.82433983,24.02029559,-99999.0,'11111222,11111222,99999999' 
TABS,ioos:station:wmo:42043:1,2009-07-03T04:30:00Z,28.9818,-94.9186,2.0,27.08182794,24.799002,-99999.0,'11111222,11111222,99999999' 
TABS,ioos:station:wmo:42043:1,2009-07-03T05:00:00Z,28.9818,-94.9186,2.0,40.52959037,22.49787546,-99999.0,'11111222,11111222,99999999' 
TABS,ioos:station:wmo:42043:1,2009-07-03T05:30:00Z,28.9818,-94.9186,2.0,49.6473811,24.00032708,-99999.0,'11111222,11111222,99999999' 
TABS,ioos:station:wmo:42043:1,2009-07-03T06:00:00Z,28.9818,-94.9186,2.0,57.80558391,28.90417963,-99999.0,'11111222,11111222,99999999' 
TABS,ioos:station:wmo:42043:1,2009-07-03T06:30:00Z,28.9818,-94.9186,2.0,72.42086183,32.18292715,-99999.0,'11111222,11111222,99999999' 
TABS,ioos:station:wmo:42043:1,2009-07-03T07:00:00Z,28.9818,-94.9186,2.0,73.69684538,31.45480885,-99999.0,'11111222,11111222,99999999' 
TABS,ioos:station:wmo:42043:1,2009-07-03T07:30:00Z,28.9818,-94.9186,2.0,80.66610622,28.60878362,-99999.0,'11111222,11111222,99999999' 
TABS,ioos:station:wmo:42043:1,2009-07-03T08:00:00Z,28.9818,-94.9186,2.0,81.09645657,33.21017465,-99999.0,'11111222,11111222,99999999' 
TABS,ioos:station:wmo:42043:1,2009-07-03T08:30:00Z,28.9818,-94.9186,2.0,87.66194306,30.88571191,-99999.0,'11111222,11111222,99999999' 
TABS,ioos:station:wmo:42043:1,2009-07-03T09:00:00Z,28.9818,-94.9186,2.0,90.9818859,28.59419871,-99999.0,'11111222,11111222,99999999' 
TABS,ioos:station:wmo:42043:1,2009-07-03T09:30:00Z,28.9818,-94.9186,2.0,87.1960941,27.39279467,-99999.0,'11111222,11111222,99999999' 
TABS,ioos:station:wmo:42043:1,2009-07-03T10:00:00Z,28.9818,-94.9186,2.0,83.04599357,39.06739433,-99999.0,'11111222,11111222,99999999' 
TABS,ioos:station:wmo:42043:1,2009-07-03T10:30:00Z,28.9818,-94.9186,2.0,79.47540567,44.07143519,-99999.0,'11111222,11111222,99999999' 
TABS,ioos:station:wmo:42043:1,2009-07-03T11:00:00Z,28.9818,-94.9186,2.0,83.26770661,38.72703448,-99999.0,'11111222,11111222,99999999' 
TABS,ioos:station:wmo:42043:1,2009-07-03T11:30:00Z,28.9818,-94.9186,2.0,84.39602766,33.69102254,-99999.0,'11111222,11111222,99999999' 
TABS,ioos:station:wmo:42043:1,2009-07-03T12:00:00Z,28.9818,-94.9186,2.0,84.22015383,37.0382964,-99999.0,'11111222,11111222,99999999' 
TABS,ioos:station:wmo:42043:1,2009-07-03T12:30:00Z,28.9818,-94.9186,2.0,80.87889843,53.55720773,-99999.0,'11111222,11111222,99999999' 
TABS,ioos:station:wmo:42043:1,2009-07-03T13:00:00Z,28.9818,-94.9186,2.0,79.92723735,48.14204399,-99999.0,'11111222,11111222,99999999' 
TABS,ioos:station:wmo:42043:1,2009-07-03T13:30:00Z,28.9818,-94.9186,2.0,89.05482103,45.46618634,-99999.0,'11111222,11111222,99999999' 
TABS,ioos:station:wmo:42043:1,2009-07-03T14:00:00Z,28.9818,-94.9186,2.0,90.11781131,43.77009253,-99999.0,'11111222,11111222,99999999' 
TABS,ioos:station:wmo:42043:1,2009-07-03T14:30:00Z,28.9818,-94.9186,2.0,89.05410067,40.58553067,-99999.0,'11111222,11111222,99999999' 
TABS,ioos:station:wmo:42043:1,2009-07-03T15:00:00Z,28.9818,-94.9186,2.0,82.65694953,49.21361803,-99999.0,'11111222,11111222,99999999' 
TABS,ioos:station:wmo:42043:1,2009-07-03T15:30:00Z,28.9818,-94.9186,2.0,87.53888171,47.27360574,-99999.0,'11111222,11111222,99999999' 
TABS,ioos:station:wmo:42043:1,2009-07-03T16:00:00Z,28.9818,-94.9186,2.0,88.14423654,47.55494191,-99999.0,'11111222,11111222,99999999' 
TABS,ioos:station:wmo:42043:1,2009-07-03T16:30:00Z,28.9818,-94.9186,2.0,88.64968377,47.10308058,-99999.0,'11111222,11111222,99999999' 
TABS,ioos:station:wmo:42043:1,2009-07-03T17:00:00Z,28.9818,-94.9186,2.0,88.97275903,41.27663383,-99999.0,'11111222,11111222,99999999' 
TABS,ioos:station:wmo:42043:1,2009-07-03T17:30:00Z,28.9818,-94.9186,2.0,94.98044236,41.69743397,-99999.0,'11111222,11111222,99999999' 
TABS,ioos:station:wmo:42043:1,2009-07-03T18:00:00Z,28.9818,-94.9186,2.0,95.63909948,34.29597352,-99999.0,'11111222,11111222,99999999' 
TABS,ioos:station:wmo:42043:1,2009-07-03T18:30:00Z,28.9818,-94.9186,2.0,95.20727124,32.28323714,-99999.0,'11111222,11111222,99999999' 
TABS,ioos:station:wmo:42043:1,2009-07-03T19:00:00Z,28.9818,-94.9186,2.0,96.52989691,27.34741304,-99999.0,'11111222,11111222,99999999' 
TABS,ioos:station:wmo:42043:1,2009-07-03T19:30:00Z,28.9818,-94.9186,2.0,93.84484053,28.48410961,-99999.0,'11111222,11111222,99999999' 
TABS,ioos:station:wmo:42043:1,2009-07-03T20:00:00Z,28.9818,-94.9186,2.0,94.65166656,23.7983886,-99999.0,'11111222,11111222,99999999' 
TABS,ioos:station:wmo:42043:1,2009-07-03T20:30:00Z,28.9818,-94.9186,2.0,100.4403559,20.41804104,-99999.0,'11111222,11111222,99999999' 
TABS,ioos:station:wmo:42043:1,2009-07-03T21:00:00Z,28.9818,-94.9186,2.0,88.5497871,16.5953156,-99999.0,'11111222,11111222,99999999' 
TABS,ioos:station:wmo:42043:1,2009-07-03T21:30:00Z,28.9818,-94.9186,2.0,96.45553712,16.45433074,-99999.0,'11111222,11111222,99999999' 
TABS,ioos:station:wmo:42043:1,2009-07-03T22:00:00Z,28.9818,-94.9186,2.0,96.07486271,15.0243702,-99999.0,'11111222,11111222,99999999' 
TABS,ioos:station:wmo:42043:1,2009-07-03T22:30:00Z,28.9818,-94.9186,2.0,97.11009059,14.29996503,-99999.0,'11111222,11111222,99999999' 
TABS,ioos:station:wmo:42043:1,2009-07-03T23:00:00Z,28.9818,-94.9186,2.0,75.11681934,11.48531671,-99999.0,'11111222,11111222,99999999' 
TABS,ioos:station:wmo:42043:1,2009-07-03T23:30:00Z,28.9818,-94.9186,2.0,67.69209821,15.54330724,-99999.0,'11111222,11111222,99999999' 
TABS,ioos:station:wmo:42043:1,2009-07-04T00:00:00Z,28.9818,-94.9186,2.0,52.61226746,15.26662373,-99999.0,'11111222,11111222,99999999' 
TABS,ioos:station:wmo:42043:1,2009-07-04T00:30:00Z,28.9818,-94.9186,2.0,47.23440841,20.13249364,-99999.0,'11111222,11111222,99999999' 
TABS,ioos:station:wmo:42043:1,2009-07-04T01:00:00Z,28.9818,-94.9186,2.0,49.626569,24.28338733,-99999.0,'11111222,11111222,99999999' 
TABS,ioos:station:wmo:42043:1,2009-07-04T01:30:00Z,28.9818,-94.9186,2.0,52.49099438,23.48546146,-99999.0,'11111222,11111222,99999999' 
TABS,ioos:station:wmo:42043:1,2009-07-04T02:00:00Z,28.9818,-94.9186,2.0,46.89509904,35.28271106,-99999.0,'11111222,11111222,99999999' 
TABS,ioos:station:wmo:42043:1,2009-07-04T02:30:00Z,28.9818,-94.9186,2.0,44.39678865,37.60602345,-99999.0,'11111222,11111222,99999999' 
TABS,ioos:station:wmo:42043:1,2009-07-04T03:00:00Z,28.9818,-94.9186,2.0,44.76155547,37.36384616,-99999.0,'11111222,11111222,99999999' 
TABS,ioos:station:wmo:42043:1,2009-07-04T03:30:00Z,28.9818,-94.9186,2.0,42.48974749,35.51670311,-99999.0,'11111222,11111222,99999999' 
TABS,ioos:station:wmo:42043:1,2009-07-04T04:00:00Z,28.9818,-94.9186,2.0,45.55915204,47.8309795,-99999.0,'11111222,11111222,99999999' 
TABS,ioos:station:wmo:42043:1,2009-07-04T04:30:00Z,28.9818,-94.9186,2.0,50.83109631,45.86692163,-99999.0,'11111222,11111222,99999999' 
TABS,ioos:station:wmo:42043:1,2009-07-04T05:00:00Z,28.9818,-94.9186,2.0,53.55479591,50.19737842,-99999.0,'11111222,11111222,99999999' 
TABS,ioos:station:wmo:42043:1,2009-07-04T05:30:00Z,28.9818,-94.9186,2.0,48.66021138,47.96188591,-99999.0,'11111222,11111222,99999999' 
TABS,ioos:station:wmo:42043:1,2009-07-04T06:00:00Z,28.9818,-94.9186,2.0,52.33947236,50.8688441,-99999.0,'11111222,11111222,99999999' 
TABS,ioos:station:wmo:42043:1,2009-07-04T06:30:00Z,28.9818,-94.9186,2.0,53.99306516,49.66963257,-99999.0,'11111222,11111222,99999999' 
TABS,ioos:station:wmo:42043:1,2009-07-04T07:00:00Z,28.9818,-94.9186,2.0,53.04425233,48.004054,-99999.0,'11111222,11111222,99999999' 
TABS,ioos:station:wmo:42043:1,2009-07-04T07:30:00Z,28.9818,-94.9186,2.0,53.82448819,48.02952634,-99999.0,'11111222,11111222,99999999' 
TABS,ioos:station:wmo:42043:1,2009-07-04T08:00:00Z,28.9818,-94.9186,2.0,61.25411573,52.6483428,-99999.0,'11111222,11111222,99999999' 
TABS,ioos:station:wmo:42043:1,2009-07-04T08:30:00Z,28.9818,-94.9186,2.0,63.81431098,49.99063112,-99999.0,'11111222,11111222,99999999' 
TABS,ioos:station:wmo:42043:1,2009-07-04T09:00:00Z,28.9818,-94.9186,2.0,64.71068757,49.41593367,-99999.0,'11111222,11111222,99999999' 
TABS,ioos:station:wmo:42043:1,2009-07-04T09:30:00Z,28.9818,-94.9186,2.0,65.95360482,50.57952352,-99999.0,'11111222,11111222,99999999' 
TABS,ioos:station:wmo:42043:1,2009-07-04T10:00:00Z,28.9818,-94.9186,2.0,70.02620119,47.57148936,-99999.0,'11111222,11111222,99999999' 
TABS,ioos:station:wmo:42043:1,2009-07-04T10:30:00Z,28.9818,-94.9186,2.0,76.0404618,32.62349613,-99999.0,'11111222,11111222,99999999' 
TABS,ioos:station:wmo:42043:1,2009-07-04T11:00:00Z,28.9818,-94.9186,2.0,73.00286014,45.49736366,-99999.0,'11111222,11111222,99999999' 
TABS,ioos:station:wmo:42043:1,2009-07-04T11:30:00Z,28.9818,-94.9186,2.0,72.69710726,52.18144115,-99999.0,'11111222,11111222,99999999' 
TABS,ioos:station:wmo:42043:1,2009-07-04T12:00:00Z,28.9818,-94.9186,2.0,76.79636502,45.40018612,-99999.0,'11111222,11111222,99999999' 
TABS,ioos:station:wmo:42043:1,2009-07-04T12:30:00Z,28.9818,-94.9186,2.0,71.1793327,49.3168379,-99999.0,'11111222,11111222,99999999' 
TABS,ioos:station:wmo:42043:1,2009-07-04T13:00:00Z,28.9818,-94.9186,2.0,78.74826212,50.22536809,-99999.0,'11111222,11111222,99999999' 
TABS,ioos:station:wmo:42043:1,2009-07-04T13:30:00Z,28.9818,-94.9186,2.0,82.84147612,50.87657614,-99999.0,'11111222,11111222,99999999' 
TABS,ioos:station:wmo:42043:1,2009-07-04T14:00:00Z,28.9818,-94.9186,2.0,79.64330291,49.39476187,-99999.0,'11111222,11111222,99999999' 
TABS,ioos:station:wmo:42043:1,2009-07-04T14:30:00Z,28.9818,-94.9186,2.0,78.51273576,51.31795495,-99999.0,'11111222,11111222,99999999' 
TABS,ioos:station:wmo:42043:1,2009-07-04T15:00:00Z,28.9818,-94.9186,2.0,87.76543805,48.21666517,-99999.0,'11111222,11111222,99999999' 
TABS,ioos:station:wmo:42043:1,2009-07-04T15:30:00Z,28.9818,-94.9186,2.0,80.33490245,45.98268478,-99999.0,'11111222,11111222,99999999' 
TABS,ioos:station:wmo:42043:1,2009-07-04T16:00:00Z,28.9818,-94.9186,2.0,82.05772319,44.87040896,-99999.0,'11111222,11111222,99999999' 
TABS,ioos:station:wmo:42043:1,2009-07-04T16:30:00Z,28.9818,-94.9186,2.0,82.13311094,48.9506905,-99999.0,'11111222,11111222,99999999' 
TABS,ioos:station:wmo:42043:1,2009-07-04T17:00:00Z,28.9818,-94.9186,2.0,82.95189685,46.20918199,-99999.0,'11111222,11111222,99999999' 